Location: Newark
(7.0858°N, 171.3717°E)
Time: 19:05:36
(UTC+00:00)

Vanguard 2 - Pass Details

Date: 26 November 2020
Orbit: 553 x 2937 km, 32.9° (Epoch: 17 January)

Event Time Altitude Azimuth Distance (km) Brightness Sun altitude
Rises 17:02:36 0° 215° (SW) 6,552 12.1 -21.0°
Reaches altitude 10° 17:08:34 10° 204° (SSW) 5,243 11.7 -19.6°
Maximum altitude 17:19:29 25° 156° (SSE) 3,374 11.3 -17.1°
Drops below altitude 10° 17:27:18 10° 104° (ESE) 3,689 12.4 -15.3°
Sets 17:30:33 0° 91° (E) 4,323 12.8 -14.5°
